[[{"header":{"parameterUnit":"m.s-1","parameterCategory":1,"la1":30.2991,"la2":30.254,"lo1":-89.0895,"lo2":-89.0444,"dy":0.0017,"dx":0.0017,"nx":28,"ny":28,"refTime":"2025-08-29T09:00:00:Z","depth":0,"parameterNumber":2,"parameterNumberName":"U-component_of_WINDS"},"data":[0,0,0,0,0,0,0,0,0,0,0,0,0,0,0,0,0,0,0,0,0,0,0,0,0,0,0,0,0,0,0,0,0,0,0,0,0,0,0,0,0,0,0,0,0,0,0,0,0,0,0,0,0,0,0,0,0,0,-4.0367,-4.037,0,-4.0598,-4.06,-4.0603,-4.0685,-4.0684,-4.0683,-4.0682,-4.0919,-4.0926,-4.0933,0,0,0,0,0,0,0,0,0,0,0,0,0,-3.9998,-4.0004,-4.0367,-4.037,-4.0373,-4.0597,-4.06,-4.0604,-4.0685,-4.0684,-4.0683,-4.0682,-4.0917,-4.0925,-4.0934,0,0,0,0,0,0,0,0,0,0,0,0,0,-4.0186,-4.0006,-4.0366,-4.044,-4.0449,-4.0597,-4.06,-4.0604,-4.0685,-4.0684,-4.0683,-4.0682,-4.0914,-4.0924,-4.0935,-4.1026,0,0,-4.0967,-4.0972,0,0,0,0,0,0,0,0,-4.0175,-4.0199,-4.0427,-4.0436,-4.0446,-4.0611,-4.0557,-4.0746,-4.0686,-4.0596,-4.0682,-4.0681,-4.0818,-4.0836,-4.0882,-4.1037,-4.1047,-4.0968,-4.0975,-4.0979,-4.0982,0,0,0,0,0,0,0,-4.0162,-4.019,-4.0458,-4.043,-4.0442,-4.0462,-4.0488,-4.0593,-4.0711,-4.0603,-4.061,-4.0636,-4.0823,-4.0872,-4.0888,-4.105,-4.0968,-4.0978,-4.0984,-4.0988,-4.129,-4.1292,0,0,0,0,0,0,-4.0137,-4.0179,-4.0451,-4.0465,-4.0305,-4.047,-4.0498,-4.0559,-4.071,-4.0732,-4.0637,-4.0639,-4.0854,-4.0876,-4.0897,-4.1012,-4.0979,-4.0989,-4.0995,-4.1289,-4.1291,-4.1292,0,0,0,0,0,0,-4.0128,-4.016,-4.0442,-4.0324,-4.0361,-4.0478,-4.0546,-4.0565,-4.0614,-4.0735,-4.0757,-4.0665,-4.0854,-4.0882,-4.0993,-4.1022,-4.0994,-4.1004,-4.1287,-4.1289,-4.1292,-4.1243,0,0,0,0,0,0,-4.0117,-4.0157,-4.0192,-4.0324,-4.0367,-4.0533,-4.0547,-4.057,-4.0632,-4.0637,-4.0768,-4.0788,-4.0855,-4.0977,-4.1003,-4.1036,-4.1012,-4.1285,-4.1288,-4.1291,-4.1243,-4.1244,-4.1245,0,0,0,0,0,-4.0104,-4.017,-4.0193,-4.0226,-4.0414,-4.0534,-4.0559,-4.0635,-4.0634,-4.067,-4.0748,-4.0784,-4.1015,-4.0987,-4.1018,-4.1054,-4.1283,-4.1287,-4.1291,-4.1243,-4.1244,-4.1245,0,0,0,0,0,0,-4.0038,-4.0188,-4.0216,-4.0327,-4.0417,-4.0548,-4.0596,-4.0634,-4.0727,-4.0728,-4.0818,-4.0847,-4.095,-4.1014,-4.0981,-4.115,-4.1151,-4.1161,-4.1104,-4.1106,-4.1107,-4.1089,-4.1021,0,0,0,0,0,-4.0037,-4.0122,-4.0249,-4.0334,-4.0378,-4.0479,-4.0534,-4.0585,-4.0683,-4.0721,-4.0808,-4.0901,-4.0995,-4.1054,-4.1147,-4.1253,-4.1283,-4.1293,-4.1294,-4.1294,-4.1301,-4.1362,-4.1368,-4.1305,-4.1305,-4.1305,0,0,-4.0034,-4.0127,-4.0175,-4.0323,-4.0399,-4.0485,-4.0511,-4.0601,-4.0666,-4.0735,-4.0844,-4.0911,-4.1022,-4.113,-4.1182,-4.1186,-4.1326,-4.1299,-4.1298,-4.1306,-4.1366,-4.1372,-4.1377,-4.1307,-4.1307,-4.1306,0,0,-4.0073,-4.0152,-4.0231,-4.0307,-4.0422,-4.0489,-4.0507,-4.0633,-4.068,-4.0791,-4.0845,-4.0924,-4.1083,-4.1159,-4.1219,-4.1286,-4.1322,-4.1314,-4.1319,-4.1376,-4.1381,-4.1386,-4.1409,-4.1416,-4.1321,-4.1321,-4.1321,0,-4.0055,-4.0187,-4.0267,-4.0354,-4.0417,-4.0484,-4.0565,-4.0635,-4.0774,-4.0816,-4.0819,-4.102,-4.1099,-4.1225,-4.1242,-4.1288,-4.1312,-4.1299,-4.1374,-4.1379,-4.1385,-4.1408,-4.1417,-4.132,-4.132,-4.132,-4.132,0,-4.0159,-4.0249,-4.0299,-4.0431,-4.0501,-4.0584,-4.0677,-4.0737,-4.0782,-4.0849,-4.0961,-4.1058,-4.1172,-4.1206,-4.1251,-4.1339,-4.1338,-4.1356,-4.1359,-4.1388,-4.1411,-4.142,-4.1317,-4.1318,-4.1318,-4.1319,0,0,-4.0162,-4.0337,-4.0354,-4.0414,-4.0546,-4.0617,-4.0704,-4.0815,-4.0864,-4.0958,-4.1033,-4.1166,-4.1184,-4.1251,-4.1306,-4.1356,-4.1402,-4.1369,-4.1373,-4.137,-4.1505,-4.1489,-4.1497,-4.1428,-4.143,-4.1431,-4.1495,0,-4.0216,-4.0373,-4.0448,-4.0572,-4.0656,-4.0721,-4.0796,-4.0885,-4.095,-4.1031,-4.1104,-4.1196,-4.1213,-4.1254,-4.1307,-4.1385,-4.143,-4.1382,-4.1497,-4.15,-4.1465,-4.151,-4.1494,-4.1549,-4.1504,-4.1506,-4.1507,0,-4.0301,-4.0394,-4.0526,-4.0647,-4.0685,-4.0751,-4.0858,-4.0935,-4.1038,-4.1082,-4.1157,-4.1209,-4.1303,-4.13,-4.143,-4.1396,-4.1448,-4.1493,-4.1498,-4.151,-4.1504,-4.1522,-4.1568,-4.1576,-4.1523,-4.1521,-4.152,0,-4.0287,-4.0446,-4.0545,-4.0595,-4.074,-4.0784,-4.0847,-4.0948,-4.1009,-4.1104,-4.1144,-4.1248,-4.1305,-4.1384,-4.1463,-4.1454,-4.1585,-4.159,-4.1624,-4.1622,-4.1647,-4.1644,-4.1701,-4.1683,-4.1683,-4.1683,-4.1682,0,-4.034,-4.0418,-4.0541,-4.0602,-4.0691,-4.0776,-4.0862,-4.093,-4.1019,-4.1094,-4.1158,-4.1227,-4.1328,-4.1411,-4.1474,-4.1571,-4.1597,-4.1635,-4.165,-4.1628,-4.1623,-4.1662,-4.166,-4.1685,-4.1684,-4.1684,-4.1684,0,-4.0339,-4.0425,-4.0537,-4.0665,-4.0699,-4.0758,-4.0868,-4.0929,-4.0998,-4.1092,-4.1119,-4.1226,-4.1326,-4.1414,-4.1546,-4.1589,-4.1688,-4.1708,-4.1653,-4.1661,-4.169,-4.1685,-4.1773,-4.1788,-4.176,-4.176,-4.1761,0,-4.0366,-4.0427,-4.0561,-4.0615,-4.0676,-4.0764,-4.0827,-4.0914,-4.0977,-4.1098,-4.1145,-4.1249,-4.1337,-4.1494,-4.1584,-4.1686,-4.1708,-4.1732,-4.1724,-4.1699,-4.1707,-4.1702,-4.1708,-4.1731,-4.1731,-4.1731,-4.173,0,-4.0404,-4.0443,-4.0531,-4.0634,-4.0707,-4.0793,-4.088,-4.0921,-4.1025,-4.1093,-4.1195,-4.1263,-4.1398,-4.1501,-4.1613,-4.1678,-4.1721,-4.1732,-4.1746,-4.1723,-4.1688,-4.1706,-4.1651,-4.173,-4.173,-4.173,-4.173,-4.173,-4.0417,-4.0474,-4.0577,-4.0673,-4.0748,-4.0828,-4.0891,-4.0968,-4.1055,-4.117,-4.1217,-4.1321,-4.1423,-4.1577,-4.1642,-4.1725,-4.1733,-4.1752,-4.1757,-4.176,-4.1755,-4.1676,-4.1746,-4.1747,-4.1747,-4.1747,-4.1747,0,-4.0457,-4.0526,-4.0614,-4.0733,-4.0809,-4.0843,-4.0942,-4.1003,-4.1093,-4.1184,-4.1269,-4.1387,-4.1487,-4.1585,-4.1691,-4.1739,-4.1761,-4.1763,-4.176,-4.1774,-4.1743,-4.1721,-4.1743,-4.1743,-4.1743,-4.1743,-4.1743,-4.1743,-4.0487,-4.0584,-4.0636,-4.0772,-4.0841,-4.0943,-4.0996,-4.1071,-4.1143,-4.1272,-4.1355,-4.1418,-4.1512,-4.1625,-4.1718,-4.1745,-4.178,-4.1777,-4.1808,-4.1777,-4.1776,-4.1775,-4.1755,-4.1784,-4.1784,-4.1832,-4.1832,-4.1833]},{"header":{"parameterUnit":"m.s-1","parameterCategory":1,"la1":30.2991,"la2":30.254,"lo1":-89.0895,"lo2":-89.0444,"dy":0.0017,"dx":0.0017,"nx":28,"ny":28,"refTime":"2025-08-29T09:00:00:Z","depth":0,"parameterNumber":3,"parameterNumberName":"V-component_of_WINDS"},"data":[0,0,0,0,0,0,0,0,0,0,0,0,0,0,0,0,0,0,0,0,0,0,0,0,0,0,0,0,0,0,0,0,0,0,0,0,0,0,0,0,0,0,0,0,0,0,0,0,0,0,0,0,0,0,0,0,0,0,3.3628,3.3627,0,3.3574,3.3574,3.3573,3.3376,3.3371,3.3367,3.3362,3.3311,3.3313,3.3316,0,0,0,0,0,0,0,0,0,0,0,0,0,3.3564,3.3566,3.3628,3.3627,3.3627,3.3574,3.3574,3.3573,3.3377,3.3371,3.3366,3.336,3.331,3.3313,3.3316,0,0,0,0,0,0,0,0,0,0,0,0,0,3.3559,3.3567,3.3628,3.3522,3.3512,3.3575,3.3574,3.3573,3.3378,3.3371,3.3364,3.3358,3.3308,3.3313,3.3317,3.3478,0,0,3.333,3.3331,0,0,0,0,0,0,0,0,3.356,3.3562,3.3539,3.353,3.3519,3.3475,3.3532,3.3541,3.3379,3.3429,3.3362,3.3355,3.3371,3.337,3.3374,3.3475,3.3473,3.333,3.3333,3.3334,3.3336,0,0,0,0,0,0,0,3.356,3.3563,3.3607,3.3539,3.3526,3.3479,3.3471,3.3533,3.3439,3.3424,3.341,3.3406,3.3364,3.3371,3.3372,3.3472,3.333,3.3334,3.3336,3.3338,3.3704,3.3711,0,0,0,0,0,0,3.3575,3.3565,3.3608,3.3605,3.3523,3.3485,3.3476,3.3496,3.3437,3.3422,3.3412,3.3397,3.3367,3.3367,3.3369,3.3553,3.3334,3.3338,3.3341,3.3697,3.3705,3.3713,0,0,0,0,0,0,3.3575,3.3581,3.3611,3.3581,3.3581,3.3494,3.3517,3.3498,3.3504,3.3428,3.341,3.3435,3.3362,3.3363,3.3452,3.3549,3.334,3.3344,3.3688,3.3699,3.3709,3.3924,0,0,0,0,0,0,3.3574,3.3582,3.3641,3.3584,3.3583,3.3694,3.3523,3.3502,3.3512,3.3492,3.3445,3.3431,3.3356,3.3447,3.3457,3.3551,3.3347,3.3679,3.3693,3.3706,3.3908,3.3941,3.397,0,0,0,0,0,3.3572,3.3705,3.3645,3.3652,3.3656,3.37,3.37,3.361,3.3521,3.358,3.3531,3.3433,3.3538,3.3458,3.3467,3.3564,3.3673,3.3689,3.3705,3.3895,3.3935,3.3969,0,0,0,0,0,0,3.3776,3.3695,3.3628,3.3746,3.3732,3.3667,3.3738,3.3656,3.3667,3.3648,3.3537,3.3528,3.3633,3.3607,3.352,3.3717,3.3589,3.3608,3.373,3.3767,3.3797,3.3801,3.3351,0,0,0,0,0,3.3835,3.3877,3.3804,3.3915,3.3911,3.3827,3.3843,3.3775,3.3756,3.3749,3.3706,3.3692,3.3721,3.3743,3.3766,3.3905,3.3892,3.3976,3.4007,3.4032,3.4049,3.4121,3.4157,3.3766,3.3766,3.3766,0,0,3.3957,3.3917,3.3951,3.3955,3.3935,3.3982,3.3823,3.3879,3.3913,3.3757,3.3838,3.3808,3.3785,3.3899,3.3948,3.3881,3.4155,3.4053,3.4074,3.4077,3.4141,3.4178,3.4211,3.3777,3.3775,3.3774,0,0,3.4201,3.4177,3.4266,3.425,3.4223,3.4166,3.4188,3.4137,3.411,3.4189,3.4074,3.4114,3.4167,3.4155,3.4156,3.44,3.4311,3.4411,3.457,3.4642,3.4672,3.4699,3.4786,3.4818,3.4429,3.443,3.443,0,3.4356,3.442,3.4323,3.4386,3.4392,3.4254,3.4344,3.4334,3.4317,3.4324,3.425,3.4314,3.4289,3.4399,3.4459,3.4465,3.4487,3.4415,3.4676,3.4702,3.4725,3.4806,3.4839,3.4442,3.444,3.4439,3.4438,0,3.4612,3.4659,3.4735,3.4721,3.4735,3.4813,3.4727,3.4754,3.4686,3.4639,3.4722,3.4688,3.4701,3.4723,3.4657,3.4825,3.4784,3.4695,3.4563,3.4776,3.4851,3.4881,3.4459,3.4455,3.4451,3.4448,0,0,3.4981,3.4913,3.4943,3.4935,3.4896,3.4931,3.5003,3.5015,3.5041,3.5035,3.5092,3.5142,3.5059,3.5061,3.4993,3.5056,3.5251,3.4959,3.4956,3.5014,3.5434,3.55,3.5538,3.5193,3.5198,3.5203,3.5435,0,3.5213,3.533,3.5245,3.5377,3.542,3.5291,3.5353,3.5338,3.5296,3.5327,3.528,3.5317,3.5205,3.5206,3.5262,3.5216,3.5334,3.5198,3.5245,3.5248,3.5253,3.5576,3.5646,3.5867,3.5464,3.5469,3.5472,0,3.5499,3.5504,3.5641,3.5594,3.5609,3.5667,3.5672,3.5703,3.5683,3.5648,3.5652,3.5568,3.5637,3.5509,3.5603,3.5512,3.5527,3.5508,3.5514,3.5514,3.5372,3.5584,3.5936,3.5969,3.5517,3.5514,3.5511,0,3.5753,3.5796,3.5882,3.588,3.5828,3.5872,3.5852,3.5825,3.5839,3.5845,3.5853,3.5867,3.5875,3.5889,3.5812,3.5727,3.5916,3.5782,3.5889,3.5892,3.5933,3.5931,3.6291,3.5946,3.5946,3.5945,3.5944,0,3.602,3.6109,3.5996,3.605,3.6146,3.6048,3.6146,3.6113,3.6091,3.6137,3.6028,3.6073,3.5969,3.6005,3.5946,3.6033,3.6037,3.6011,3.5994,3.602,3.6024,3.6027,3.6009,3.5954,3.5952,3.595,3.5949,0,3.6319,3.6248,3.6334,3.6278,3.6266,3.634,3.6292,3.634,3.6292,3.6351,3.636,3.6284,3.6321,3.6246,3.6272,3.6233,3.6355,3.6314,3.6361,3.6349,3.646,3.645,3.6834,3.6879,3.6507,3.6511,3.6514,0,3.6493,3.6558,3.651,3.6532,3.6519,3.6557,3.657,3.6478,3.6497,3.648,3.6531,3.6558,3.6574,3.6639,3.6587,3.6607,3.6566,3.6699,3.6568,3.6592,3.6567,3.6563,3.6569,3.6725,3.673,3.6733,3.6736,0,3.681,3.6772,3.6794,3.6807,3.6826,3.6831,3.6828,3.6853,3.6756,3.6783,3.6818,3.6831,3.6859,3.6887,3.6896,3.6876,3.6792,3.6779,3.6804,3.6831,3.6855,3.6842,3.6433,3.677,3.6766,3.6764,3.6762,3.6761,3.705,3.7102,3.7077,3.7107,3.7095,3.7096,3.7138,3.7096,3.7123,3.7137,3.7082,3.7131,3.7111,3.7113,3.7104,3.7141,3.7081,3.7119,3.7128,3.7138,3.7156,3.6851,3.7142,3.7141,3.714,3.714,3.7139,0,3.736,3.7338,3.7366,3.7366,3.739,3.7308,3.7302,3.7327,3.7371,3.7359,3.7378,3.742,3.7448,3.74,3.742,3.7459,3.7421,3.7468,3.7463,3.746,3.7209,3.7184,3.7499,3.7499,3.7499,3.7498,3.7498,3.7498,3.7524,3.7607,3.7567,3.7644,3.7621,3.7667,3.767,3.7671,3.7661,3.7713,3.7735,3.7703,3.7677,3.7695,3.7718,3.7703,3.7715,3.7776,3.7748,3.7513,3.7478,3.7444,3.742,3.778,3.778,3.7995,3.7998,3.7999]}]]